Overview Statistics Trail Chart Weather Telemetry Raw packets
 

This is the latest recevied weather packets stored in our database for station/object W5CDN. If no packets are shown the sender has not sent any weather packets the latest 10 day(s).

<< 77 78 79 80 81 82 83 >>
Time Temp. Humidity Pressure Rain* Wind** Luminosity Snow
1787850536 33.33° C 56% 1014.4 hPa 0 mm - - -
1787850236 32.78° C 58% 1014.4 hPa 0 mm - - -
1787849936 32.22° C 60% 1014.1 hPa 0 mm - - -
1787849636 33.33° C 56% 1014.4 hPa 0 mm - - -
1787849336 32.78° C 58% 1014.4 hPa 0 mm - - -
1787849036 32.78° C 60% 1014.4 hPa 0 mm - - -
1787848736 33.33° C 59% 1014.4 hPa 0 mm - - -
1787848436 32.78° C 59% 1014.3 hPa 0 mm - - -
1787848136 32.22° C 60% 1014.6 hPa 0 mm - - -
1787847836 31.67° C 62% 1014.7 hPa 0 mm - - -
1787847536 31.67° C 63% 1014.5 hPa 0 mm - - -
1787847236 31.11° C 63% 1014.4 hPa 0 mm - - -
1787846936 30.56° C 64% 1014.6 hPa 0 mm - - -
1787846636 30.56° C 64% 1014.6 hPa 0 mm - - -
1787846336 30.56° C 63% 1014.5 hPa 0 mm - - -
1787846036 30° C 65% 1014.6 hPa 0 mm - - -
1787845736 30.56° C 65% 1014.5 hPa 0 mm - - -
1787845436 30.56° C 65% 1014.5 hPa 0 mm - - -
1787845136 30° C 66% 1014.6 hPa 0 mm - - -
1787844836 29.44° C 68% 1014.6 hPa 0 mm - - -
1787844536 29.44° C 68% 1014.6 hPa 0 mm - - -
1787844236 29.44° C 70% 1014.5 hPa 0 mm - - -
1787843936 28.89° C 70% 1014.6 hPa 0 mm - - -
1787843636 28.89° C 69% 1014.7 hPa 0 mm - - -
1787843336 28.89° C 70% 1014.6 hPa 0 mm - - -

* Rain latest hour (hover to see other rain measurements)
** Current wind speed in m/s (hover to see current wind gust speed)